Location: Zagreb
(45.8000°N, 16.0000°E)
Time: 14:53:53
(UTC+02:00)

Transit 2A Rocket - Pass Details

Date: 14 August 2022
Orbit: 593 x 907 km, 66.7° (Epoch: 25 September)

Event Time Altitude Azimuth Distance (km) Brightness Sun altitude
Rises 01:14:16 0° 338° (NNW) 2,843 8.9 -29.7°
Reaches altitude 10° 01:19:06 10° 26° (NNE) 1,965 7.9 -29.6°
Maximum altitude 01:19:23 10° 30° (NNE) 1,964 7.9 -29.6°
Drops below altitude 10° 01:19:41 10° 34° (NE) 1,970 7.8 -29.6°
Sets 01:24:38 0° 82° (E) 2,939 8.2 -29.5°
